WM0F Weather Reports


Display with metric or nautical units.
time (UTC)temp
F
wind
direction
speed
MPH
gust
MPH
rain 1hr
in
rain 24hr
in
rain mn
in
humidity
%
barometer
mb
20240624062504 69 250 0.0 0.0 0.00 0.00 0.00 46 1018.1
20240624061602 68 257 0.0 2.0 0.00 0.00 0.00 45 1018.1
20240624061004 69 272 0.0 0.0 0.00 0.00 0.00 45 1017.9
20240624060504 69 272 0.0 1.0 0.00 0.00 0.00 44 1017.9
20240624060004 69 272 1.0 3.0 0.00 0.00 0.00 44 1018.0
20240624055504 69 272 1.0 3.0 0.00 0.00 0.00 44 1018.0
20240624054603 69 272 1.0 3.0 0.00 0.00 0.00 44 1018.0
20240624054503 69 272 1.0 3.0 0.00 0.00 0.00 44 1018.0
20240624054004 70 272 0.0 3.0 0.00 0.00 0.00 45 1018.1
20240624053504 70 272 2.0 3.0 0.00 0.00 0.00 46 1018.1
20240624053004 70 282 2.0 3.0 0.00 0.00 0.00 47 1018.1
20240624052503 70 282 1.0 3.0 0.00 0.00 0.00 48 1018.2
20240624052004 71 282 0.0 2.0 0.00 0.00 0.00 47 1018.2
20240624051506 71 282 0.0 2.0 0.00 0.00 0.00 48 1018.2
20240624051004 71 282 0.0 1.0 0.00 0.00 0.00 48 1018.3
20240624050504 71 282 0.0 0.0 0.00 0.00 0.00 47 1018.2
20240624050104 71 282 0.0 4.0 0.00 0.00 0.00 47 1018.3
20240624050004 72 282 0.0 1.0 0.00 0.00 0.00 47 1018.3
20240624045504 72 285 1.0 3.0 0.00 0.00 0.00 47 1018.3
20240624045004 72 306 1.0 3.0 0.00 0.00 0.00 47 1018.2
20240624044526 71 306 0.0 4.0 0.00 0.00 0.00 47 1018.2
20240624044504 72 306 1.0 3.0 0.00 0.00 0.00 47 1018.2
20240624044004 72 305 0.0 1.0 0.00 0.00 0.00 48 1018.3
20240624043005 72 305 0.0 1.0 0.00 0.00 0.00 48 1018.4
20240624043002 71 305 0.0 1.0 0.00 0.00 0.00 48 1018.4
20240624042504 72 305 0.0 0.0 0.00 0.00 0.00 48 1018.4
20240624041504 73 305 1.0 2.0 0.00 0.00 0.00 50 1018.3
20240624041004 73 307 1.0 2.0 0.00 0.00 0.00 49 1018.3
20240624040503 73 308 0.0 1.0 0.00 0.00 0.00 49 1018.2
20240624040007 73 308 0.0 3.0 0.00 0.00 0.00 48 1018.2
20240624040004 74 308 0.0 0.0 0.00 0.00 0.00 48 1018.2
20240624035505 74 308 1.0 3.0 0.00 0.00 0.00 47 1018.2
20240624035003 74 307 0.0 3.0 0.00 0.00 0.00 46 1018.1
20240624034602 74 307 2.0 7.0 0.00 0.00 0.00 45 1018.2
20240624034504 75 312 3.0 7.0 0.00 0.00 0.00 44 1018.2
20240624034004 75 322 4.0 7.0 0.00 0.00 0.00 41 1018.1
20240624033504 75 319 0.0 0.0 0.00 0.00 0.00 42 1017.9
20240624033103 75 319 0.0 0.0 0.00 0.00 0.00 42 1017.8
20240624033004 76 319 0.0 0.0 0.00 0.00 0.00 42 1017.8
20240624032504 76 319 0.0 0.0 0.00 0.00 0.00 42 1017.7
20240624031604 76 319 0.0 0.0 0.00 0.00 0.00 41 1017.6
20240624031504 77 319 0.0 0.0 0.00 0.00 0.00 43 1017.7
20240624031004 77 319 0.0 0.0 0.00 0.00 0.00 42 1017.7
20240624030504 78 319 0.0 0.0 0.00 0.00 0.00 41 1017.7
20240624030003 79 319 0.0 0.0 0.00 0.00 0.00 38 1017.7
20240624025503 79 319 0.0 0.0 0.00 0.00 0.00 37 1017.7
20240624025004 80 319 0.0 0.0 0.00 0.00 0.00 38 1017.7
20240624024616 80 319 0.0 0.0 0.00 0.00 0.00 36 1017.7
20240624024503 81 319 0.0 0.0 0.00 0.00 0.00 36 1017.7
20240624024004 81 319 0.0 0.0 0.00 0.00 0.00 33 1017.8
20240624023504 82 319 0.0 0.0 0.00 0.00 0.00 31 1017.7
20240624023004 83 319 0.0 0.0 0.00 0.00 0.00 31 1017.7
20240624022504 84 319 0.0 0.0 0.00 0.00 0.00 29 1017.7
20240624022006 85 319 0.0 0.0 0.00 0.00 0.00 29 1017.6
20240624021603 84 319 0.0 4.0 0.00 0.00 0.00 27 1017.4
20240624021504 85 319 1.0 3.0 0.00 0.00 0.00 26 1017.4
20240624021003 85 317 1.0 3.0 0.00 0.00 0.00 26 1017.4
20240624020503 86 319 0.0 2.0 0.00 0.00 0.00 26 1017.3
20240624020105 85 7 0.0 8.0 0.00 0.00 0.00 25 1017.4
20240624020004 86 7 2.0 6.0 0.00 0.00 0.00 26 1017.4
20240624015504 86 6 2.0 9.0 0.00 0.00 0.00 25 1017.4
20240624015004 86 13 2.0 7.0 0.00 0.00 0.00 26 1017.4
20240624014505 87 15 2.0 10.0 0.00 0.00 0.00 25 1017.4
20240624014503 86 15 1.0 10.0 0.00 0.00 0.00 25 1017.4
20240624014004 87 15 2.0 9.0 0.00 0.00 0.00 24 1017.4
20240624013003 87 357 3.0 8.0 0.00 0.00 0.00 25 1017.3
20240624012503 87 5 2.0 8.0 0.00 0.00 0.00 26 1017.3
20240624012003 87 2 3.0 10.0 0.00 0.00 0.00 26 1017.2
20240624011603 87 1 1.0 10.0 0.00 0.00 0.00 27 1017.2
20240624011504 87 348 2.0 10.0 0.00 0.00 0.00 26 1017.3
20240624011003 87 10 2.0 6.0 0.00 0.00 0.00 26 1017.3
20240624010503 87 105 0.0 0.0 0.00 0.00 0.00 25 1017.2
20240624010101 87 105 0.0 3.0 0.00 0.00 0.00 25 1017.2
20240624010004 87 105 0.0 2.0 0.00 0.00 0.00 25 1017.2
20240624005003 87 167 0.0 2.0 0.00 0.00 0.00 24 1017.2
20240624004507 87 167 0.0 6.0 0.00 0.00 0.00 24 1017.2
20240624004504 88 167 1.0 3.0 0.00 0.00 0.00 24 1017.2
20240624004004 88 167 2.0 6.0 0.00 0.00 0.00 24 1017.1
20240624003504 90 162 3.0 8.0 0.00 0.00 0.00 23 1017.2
20240624001607 92 174 2.0 12.0 0.00 0.00 0.00 26 1017.2
20240624000058 92 153 0.0 3.0 0.00 0.00 0.00 18 1017.1
20240623234556 91 153 0.0 0.0 0.00 0.00 0.00 23 1017.1
20240623233055 90 153 0.0 0.0 0.00 0.00 0.00 21 1017.2
20240623231609 90 153 0.0 6.0 0.00 0.00 0.00 22 1017.4
20240623230052 91 187 0.0 4.0 0.00 0.00 0.00 24 1017.4
20240623224604 91 320 0.0 0.0 0.00 0.00 0.00 18 1017.4
20240623223051 92 117 0.0 6.0 0.00 0.00 0.00 20 1017.5
20240623221551 92 118 3.0 6.0 0.00 0.00 0.00 19 1017.6
20240623220056 91 117 1.0 4.0 0.00 0.00 0.00 20 1017.5
20240623214552 92 119 0.0 6.0 0.00 0.00 0.00 19 1017.6
20240623213048 94 111 4.0 11.0 0.00 0.00 0.00 18 1017.6
20240623211545 95 88 1.0 11.0 0.00 0.00 0.00 19 1017.7
20240623210043 95 92 3.0 8.0 0.00 0.00 0.00 19 1017.8
20240623204547 95 96 1.0 6.0 0.00 0.00 0.00 19 1017.9
20240623203044 95 93 3.0 12.0 0.00 0.00 0.00 18 1018.1
20240623201539 96 95 4.0 11.0 0.00 0.00 0.00 17 1018.2
20240623200037 97 147 4.0 11.0 0.00 0.00 0.00 18 1018.3
20240623194535 98 158 1.0 5.0 0.00 0.00 0.00 18 1018.3
20240623193035 96 158 0.0 7.0 0.00 0.00 0.00 19 1018.6
20240623191529 95 169 0.0 9.0 0.00 0.00 0.00 21 1018.8
20240623190028 96 160 5.0 15.0 0.00 0.00 0.00 20 1018.9
20240623184526 96 200 3.0 7.0 0.00 0.00 0.00 21 1018.9
20240623183024 94 176 0.0 10.0 0.00 0.00 0.00 22 1019.1
20240623181520 93 167 3.0 9.0 0.00 0.00 0.00 19 1019.2
20240623180019 93 161 1.0 9.0 0.00 0.00 0.00 20 1019.4
20240623174519 92 159 1.0 8.0 0.00 0.00 0.00 22 1019.5
20240623173015 91 159 3.0 8.0 0.00 0.00 0.00 22 1019.5
20240623171514 90 161 3.0 9.0 0.00 0.00 0.00 27 1019.7
20240623170007 89 126 2.0 6.0 0.00 0.00 0.00 28 1019.7
20240623164505 89 84 5.0 8.0 0.00 0.00 0.00 31 1019.7
20240623163101 88 108 2.0 6.0 0.00 0.00 0.00 34 1019.8
20240623161601 86 132 1.0 7.0 0.00 0.00 0.00 36 1020.0
20240623160055 85 146 1.0 6.0 0.00 0.00 0.00 35 1020.1
20240623154554 84 117 0.0 0.0 0.00 0.00 0.00 36 1020.2
20240623153051 84 114 0.0 0.0 0.00 0.00 0.00 36 1020.3
20240623151547 82 134 0.0 4.0 0.00 0.00 0.00 38 1020.3
20240623150044 82 4 0.0 0.0 0.00 0.00 0.00 38 1020.3
20240623144555 81 355 0.0 0.0 0.00 0.00 0.00 38 1020.4
20240623143038 79 53 0.0 0.0 0.00 0.00 0.00 40 1020.4
20240623141542 78 53 0.0 0.0 0.00 0.00 0.00 40 1020.5
20240623140107 76 142 0.0 0.0 0.00 0.00 0.00 45 1020.6
20240623134527 73 18 0.0 2.0 0.00 0.00 0.00 44 1020.6
20240623133020 71 25 0.0 0.0 0.00 0.00 0.00 48 1020.5
20240623131515 67 272 0.0 2.0 0.00 0.00 0.00 55 1020.5
20240623130013 64 41 0.0 0.0 0.00 0.00 0.00 61 1020.5
20240623124512 61 17 0.0 0.0 0.00 0.00 0.00 63 1020.5
20240623123016 59 323 0.0 2.0 0.00 0.00 0.00 64 1020.4
20240623121511 58 328 0.0 1.0 0.00 0.00 0.00 64 1020.3
20240623120010 58 328 0.0 2.0 0.00 0.00 0.00 65 1020.2
20240623114512 59 326 0.0 2.0 0.00 0.00 0.00 65 1020.2
20240623113005 60 282 0.0 1.0 0.00 0.00 0.00 63 1020.2
20240623111504 60 282 0.0 1.0 0.00 0.00 0.00 61 1020.2
20240623110004 59 282 0.0 0.0 0.00 0.00 0.00 60 1020.0
20240623104505 60 282 0.0 3.0 0.00 0.00 0.00 59 1020.0
20240623103059 60 282 0.0 1.0 0.00 0.00 0.00 56 1019.9
20240623101609 61 282 0.0 0.0 0.00 0.00 0.00 56 1019.9
20240623100104 61 282 0.0 0.0 0.00 0.00 0.00 57 1019.9
20240623094555 62 282 0.0 0.0 0.00 0.00 0.00 52 1019.9
20240623093053 62 282 0.0 0.0 0.00 0.00 0.00 52 1019.9
20240623091635 62 282 0.0 0.0 0.00 0.00 0.00 53 1019.9
20240623090051 62 282 0.0 0.0 0.00 0.00 0.00 54 1019.9
20240623084604 63 282 0.0 0.0 0.00 0.00 0.00 54 1019.9
20240623083056 63 282 0.0 0.0 0.00 0.00 0.00 50 1019.8
20240623081548 63 282 0.0 1.0 0.00 0.00 0.00 54 1020.0
20240623080045 63 286 0.0 0.0 0.00 0.00 0.00 56 1020.1
20240623074544 63 177 0.0 0.0 0.00 0.00 0.00 54 1020.2
20240623073046 63 177 0.0 0.0 0.00 0.00 0.00 54 1020.2
20240623071539 64 177 0.0 0.0 0.00 0.00 0.00 55 1020.3
20240623070036 64 177 0.0 1.0 0.00 0.00 0.00 51 1020.4
20240623064533 65 177 0.0 3.0 0.00 0.00 0.00 53 1020.4
20240623063030 65 177 0.0 0.0 0.00 0.00 0.00 51 1020.6